Year,Month,Day,Hour,Minute,Value (Times are PST for temperature in C)
2021,06,27,00,00,25.70
2021,06,27,00,01,25.70
2021,06,27,00,02,25.60
2021,06,27,00,03,25.60
2021,06,27,00,04,25.60
2021,06,27,00,05,25.60
2021,06,27,00,06,25.60
2021,06,27,00,07,25.50
2021,06,27,00,08,25.50
2021,06,27,00,09,25.50
2021,06,27,00,10,25.40
2021,06,27,00,11,25.40
2021,06,27,00,12,25.40
2021,06,27,00,13,25.40
2021,06,27,00,14,25.40
2021,06,27,00,15,25.40
2021,06,27,00,16,25.40
2021,06,27,00,17,25.40
2021,06,27,00,18,25.40
2021,06,27,00,19,25.40
2021,06,27,00,20,25.40
2021,06,27,00,21,25.40
2021,06,27,00,22,25.40
2021,06,27,00,23,25.40
2021,06,27,00,24,25.40
2021,06,27,00,25,25.30
2021,06,27,00,26,25.30
2021,06,27,00,27,25.30
2021,06,27,00,28,25.30
2021,06,27,00,29,25.30
2021,06,27,00,30,25.30
2021,06,27,00,31,25.30
2021,06,27,00,32,25.30
2021,06,27,00,33,25.30
2021,06,27,00,34,25.20
2021,06,27,00,35,25.20
2021,06,27,00,36,25.20
2021,06,27,00,37,25.20
2021,06,27,00,38,25.20
2021,06,27,00,39,25.20
2021,06,27,00,40,25.10
2021,06,27,00,41,25.10
2021,06,27,00,42,25.10
2021,06,27,00,43,25.10
2021,06,27,00,44,25.10
2021,06,27,00,45,25.10
2021,06,27,00,46,25.00
2021,06,27,00,47,25.00
2021,06,27,00,48,25.00
2021,06,27,00,49,25.00
2021,06,27,00,50,25.00
2021,06,27,00,51,24.90
2021,06,27,00,52,24.90
2021,06,27,00,53,24.90
2021,06,27,00,54,24.90
2021,06,27,00,55,24.90
2021,06,27,00,56,24.90
2021,06,27,00,57,24.80
2021,06,27,00,58,24.80
2021,06,27,00,59,24.80
2021,06,27,01,00,24.80
2021,06,27,01,01,24.70
2021,06,27,01,02,24.70
2021,06,27,01,03,24.70
2021,06,27,01,04,24.70
2021,06,27,01,05,24.60
2021,06,27,01,06,24.60
2021,06,27,01,07,24.60
2021,06,27,01,08,24.50
2021,06,27,01,09,24.50
2021,06,27,01,10,24.50
2021,06,27,01,11,24.40
2021,06,27,01,12,24.40
2021,06,27,01,13,24.40
2021,06,27,01,14,24.40
2021,06,27,01,15,24.40
2021,06,27,01,16,24.40
2021,06,27,01,17,24.30
2021,06,27,01,18,24.30
2021,06,27,01,19,24.40
2021,06,27,01,20,24.40
2021,06,27,01,21,24.40
2021,06,27,01,22,24.40
2021,06,27,01,23,24.40
2021,06,27,01,24,24.40
2021,06,27,01,25,24.40
2021,06,27,01,26,24.40
2021,06,27,01,27,24.30
2021,06,27,01,28,24.30
2021,06,27,01,29,24.30
2021,06,27,01,30,24.30
2021,06,27,01,31,24.30
2021,06,27,01,32,24.30
2021,06,27,01,33,24.20
2021,06,27,01,34,24.20
2021,06,27,01,35,24.20
2021,06,27,01,36,24.10
2021,06,27,01,37,24.10
2021,06,27,01,38,24.10
2021,06,27,01,39,24.10
2021,06,27,01,40,24.00
2021,06,27,01,41,24.00
2021,06,27,01,42,23.90
2021,06,27,01,43,23.90
2021,06,27,01,44,23.90
2021,06,27,01,45,23.80
2021,06,27,01,46,23.80
2021,06,27,01,47,23.80
2021,06,27,01,48,23.80
2021,06,27,01,49,23.80
2021,06,27,01,50,23.70
2021,06,27,01,51,23.70
2021,06,27,01,52,23.70
2021,06,27,01,53,23.70
2021,06,27,01,54,23.60
2021,06,27,01,55,23.60
2021,06,27,01,56,23.60
2021,06,27,01,57,23.60
2021,06,27,01,58,23.60
2021,06,27,01,59,23.50
2021,06,27,02,00,23.50
2021,06,27,02,01,23.50
2021,06,27,02,02,23.50
2021,06,27,02,03,23.50
2021,06,27,02,04,23.40
2021,06,27,02,05,23.40
2021,06,27,02,06,23.40
2021,06,27,02,07,23.40
2021,06,27,02,08,23.40
2021,06,27,02,09,23.40
2021,06,27,02,10,23.40
2021,06,27,02,11,23.40
2021,06,27,02,12,23.40
2021,06,27,02,13,23.40
2021,06,27,02,14,23.40
2021,06,27,02,15,23.40
2021,06,27,02,16,23.40
2021,06,27,02,17,23.30
2021,06,27,02,18,23.30
2021,06,27,02,19,23.30
2021,06,27,02,20,23.30
2021,06,27,02,21,23.30
2021,06,27,02,22,23.20
2021,06,27,02,23,23.20
2021,06,27,02,24,23.20
2021,06,27,02,25,23.10
2021,06,27,02,26,23.10
2021,06,27,02,27,23.10
2021,06,27,02,28,23.00
2021,06,27,02,29,23.00
2021,06,27,02,30,23.00
2021,06,27,02,31,22.90
2021,06,27,02,32,22.90
2021,06,27,02,33,22.90
2021,06,27,02,34,22.80
2021,06,27,02,35,22.80
2021,06,27,02,36,22.80
2021,06,27,02,37,22.70
2021,06,27,02,38,22.70
2021,06,27,02,39,22.60
2021,06,27,02,40,22.60
2021,06,27,02,41,22.60
2021,06,27,02,42,22.60
2021,06,27,02,43,22.60
2021,06,27,02,44,22.60
2021,06,27,02,45,22.50
2021,06,27,02,46,22.50
2021,06,27,02,47,22.50
2021,06,27,02,48,22.50
2021,06,27,02,49,22.50
2021,06,27,02,50,22.50
2021,06,27,02,51,22.50
2021,06,27,02,52,22.50
2021,06,27,02,53,22.50
2021,06,27,02,54,22.50
2021,06,27,02,55,22.40
2021,06,27,02,56,22.40
2021,06,27,02,57,22.40
2021,06,27,02,58,22.40
2021,06,27,02,59,22.30
2021,06,27,03,00,22.30
2021,06,27,03,01,22.30
2021,06,27,03,02,22.30
2021,06,27,03,03,22.30
2021,06,27,03,04,22.20
2021,06,27,03,05,22.20
2021,06,27,03,06,22.10
2021,06,27,03,07,22.10
2021,06,27,03,08,22.00
2021,06,27,03,09,22.00
2021,06,27,03,10,21.90
2021,06,27,03,11,21.90
2021,06,27,03,12,21.80
2021,06,27,03,13,21.80
2021,06,27,03,14,21.80
2021,06,27,03,15,21.80
2021,06,27,03,16,21.70
2021,06,27,03,17,21.70
2021,06,27,03,18,21.60
2021,06,27,03,19,21.60
2021,06,27,03,20,21.50
2021,06,27,03,21,21.50
2021,06,27,03,22,21.40
2021,06,27,03,23,21.40
2021,06,27,03,24,21.40
2021,06,27,03,25,21.40
2021,06,27,03,26,21.30
2021,06,27,03,27,21.30
2021,06,27,03,28,21.30
2021,06,27,03,29,21.30
2021,06,27,03,30,21.30
2021,06,27,03,31,21.30
2021,06,27,03,32,21.30
2021,06,27,03,33,21.30
2021,06,27,03,34,21.40
2021,06,27,03,35,21.40
2021,06,27,03,36,21.40
2021,06,27,03,37,21.40
2021,06,27,03,38,21.50
2021,06,27,03,39,21.50
2021,06,27,03,40,21.60
2021,06,27,03,41,21.60
2021,06,27,03,42,21.60
2021,06,27,03,43,21.60
2021,06,27,03,44,21.70
2021,06,27,03,45,21.70
2021,06,27,03,46,21.70
2021,06,27,03,47,21.70
2021,06,27,03,48,21.70
2021,06,27,03,49,21.70
2021,06,27,03,50,21.70
2021,06,27,03,51,21.70
2021,06,27,03,52,21.70
2021,06,27,03,53,21.70
2021,06,27,03,54,21.60
2021,06,27,03,55,21.60
2021,06,27,03,56,21.60
2021,06,27,03,57,21.60
2021,06,27,03,58,21.50
2021,06,27,03,59,21.50
2021,06,27,04,00,21.40
2021,06,27,04,01,21.40
2021,06,27,04,02,21.40
2021,06,27,04,03,21.40
2021,06,27,04,04,21.30
2021,06,27,04,05,21.30
2021,06,27,04,06,21.30
2021,06,27,04,07,21.30
2021,06,27,04,08,21.30
2021,06,27,04,09,21.30
2021,06,27,04,10,21.30
2021,06,27,04,11,21.30
2021,06,27,04,12,21.20
2021,06,27,04,13,21.20
2021,06,27,04,14,21.20
2021,06,27,04,15,21.20
2021,06,27,04,16,21.10
2021,06,27,04,17,21.10
2021,06,27,04,18,21.00
2021,06,27,04,19,21.00
2021,06,27,04,20,21.00
2021,06,27,04,21,20.90
2021,06,27,04,22,20.90
2021,06,27,04,23,20.90
2021,06,27,04,24,20.90
2021,06,27,04,25,20.90
2021,06,27,04,26,20.90
2021,06,27,04,27,20.90
2021,06,27,04,28,20.90
2021,06,27,04,29,20.90
2021,06,27,04,30,20.90
2021,06,27,04,31,20.90
2021,06,27,04,32,20.90
2021,06,27,04,33,20.90
2021,06,27,04,34,20.90
2021,06,27,04,35,20.80
2021,06,27,04,36,20.80
2021,06,27,04,37,20.80
2021,06,27,04,38,20.70
2021,06,27,04,39,20.70
2021,06,27,04,40,20.70
2021,06,27,04,41,20.70
2021,06,27,04,42,20.60
2021,06,27,04,43,20.60
2021,06,27,04,44,20.60
2021,06,27,04,45,20.60
2021,06,27,04,46,20.60
2021,06,27,04,47,20.50
2021,06,27,04,48,20.50
2021,06,27,04,49,20.50
2021,06,27,04,50,20.50
2021,06,27,04,51,20.40
2021,06,27,04,52,20.40
2021,06,27,04,53,20.40
2021,06,27,04,54,20.40
2021,06,27,04,55,20.40
2021,06,27,04,56,20.40
2021,06,27,04,57,20.30
2021,06,27,04,58,20.40
2021,06,27,04,59,20.40
2021,06,27,05,00,20.40
2021,06,27,05,01,20.40
2021,06,27,05,02,20.40
2021,06,27,05,03,20.50
2021,06,27,05,04,20.50
2021,06,27,05,05,20.60
2021,06,27,05,06,20.60
2021,06,27,05,07,20.60
2021,06,27,05,08,20.60
2021,06,27,05,09,20.60
2021,06,27,05,10,20.60
2021,06,27,05,11,20.60
2021,06,27,05,12,20.60
2021,06,27,05,13,20.60
2021,06,27,05,14,20.60
2021,06,27,05,15,20.60
2021,06,27,05,16,20.60
2021,06,27,05,17,20.70
2021,06,27,05,18,20.70
2021,06,27,05,19,20.70
2021,06,27,05,20,20.70
2021,06,27,05,21,20.80
2021,06,27,05,22,20.80
2021,06,27,05,23,20.80
2021,06,27,05,24,20.80
2021,06,27,05,25,20.80
2021,06,27,05,26,20.80
2021,06,27,05,27,20.90
2021,06,27,05,28,20.90
2021,06,27,05,29,20.90
2021,06,27,05,30,20.90
2021,06,27,05,31,21.00
2021,06,27,05,32,21.00
2021,06,27,05,33,21.10
2021,06,27,05,34,21.10
2021,06,27,05,35,21.10
2021,06,27,05,36,21.10
2021,06,27,05,37,21.20
2021,06,27,05,38,21.20
2021,06,27,05,39,21.20
2021,06,27,05,40,21.20
2021,06,27,05,41,21.20
2021,06,27,05,42,21.30
2021,06,27,05,43,21.30
2021,06,27,05,44,21.30
2021,06,27,05,45,21.30
2021,06,27,05,46,21.40
2021,06,27,05,47,21.50
2021,06,27,05,48,21.60
2021,06,27,05,49,21.70
2021,06,27,05,50,21.80
2021,06,27,05,51,21.90
2021,06,27,05,52,22.00
2021,06,27,05,53,22.20
2021,06,27,05,54,22.30
2021,06,27,05,55,22.50
2021,06,27,05,56,22.60
2021,06,27,05,57,22.80
2021,06,27,05,58,22.90
2021,06,27,05,59,23.10
2021,06,27,06,00,23.20
2021,06,27,06,01,23.20
2021,06,27,06,02,23.30
2021,06,27,06,03,23.30
2021,06,27,06,04,23.40
2021,06,27,06,05,23.40
2021,06,27,06,06,23.40
2021,06,27,06,07,23.40
2021,06,27,06,08,23.40
2021,06,27,06,09,23.50
2021,06,27,06,10,23.50
2021,06,27,06,11,23.50
2021,06,27,06,12,23.50
2021,06,27,06,13,23.50
2021,06,27,06,14,23.50
2021,06,27,06,15,23.50
2021,06,27,06,16,23.40
2021,06,27,06,17,23.50
2021,06,27,06,18,23.50
2021,06,27,06,19,23.60
2021,06,27,06,20,23.60
2021,06,27,06,21,23.70
2021,06,27,06,22,23.80
2021,06,27,06,23,23.80
2021,06,27,06,24,23.80
2021,06,27,06,25,23.90
2021,06,27,06,26,24.00
2021,06,27,06,27,24.10
2021,06,27,06,28,24.10
2021,06,27,06,29,24.20
2021,06,27,06,30,24.20
2021,06,27,06,31,24.30
2021,06,27,06,32,24.30
2021,06,27,06,33,24.30
2021,06,27,06,34,24.40
2021,06,27,06,35,24.40
2021,06,27,06,36,24.40
2021,06,27,06,37,24.50
2021,06,27,06,38,24.50
2021,06,27,06,39,24.50
2021,06,27,06,40,24.60
2021,06,27,06,41,24.60
2021,06,27,06,42,24.70
2021,06,27,06,43,24.70
2021,06,27,06,44,24.70
2021,06,27,06,45,24.70
2021,06,27,06,46,24.70
2021,06,27,06,47,24.70
2021,06,27,06,48,24.70
2021,06,27,06,49,24.80
2021,06,27,06,50,24.80
2021,06,27,06,51,24.80
2021,06,27,06,52,24.80
2021,06,27,06,53,24.80
2021,06,27,06,54,24.80
2021,06,27,06,55,24.80
2021,06,27,06,56,24.80
2021,06,27,06,57,24.90
2021,06,27,06,58,24.90
2021,06,27,06,59,24.90
2021,06,27,07,00,25.00
2021,06,27,07,01,25.00
2021,06,27,07,02,25.00
2021,06,27,07,03,25.10
2021,06,27,07,04,25.10
2021,06,27,07,05,25.10
2021,06,27,07,06,25.20
2021,06,27,07,07,25.20
2021,06,27,07,08,25.20
2021,06,27,07,09,25.30
2021,06,27,07,10,25.30
2021,06,27,07,11,25.40
2021,06,27,07,12,25.40
2021,06,27,07,13,25.50
2021,06,27,07,14,25.50
2021,06,27,07,15,25.60
2021,06,27,07,16,25.60
2021,06,27,07,17,25.60
2021,06,27,07,18,25.70
2021,06,27,07,19,25.70
2021,06,27,07,20,25.70
2021,06,27,07,21,25.70
2021,06,27,07,22,25.80
2021,06,27,07,23,25.80
2021,06,27,07,24,25.80
2021,06,27,07,25,25.80
2021,06,27,07,26,25.80
2021,06,27,07,27,25.80
2021,06,27,07,28,25.90
2021,06,27,07,29,25.90
2021,06,27,07,30,25.90
2021,06,27,07,31,26.00
2021,06,27,07,32,26.00
2021,06,27,07,33,26.10
2021,06,27,07,34,26.10
2021,06,27,07,35,26.20
2021,06,27,07,36,26.20
2021,06,27,07,37,26.20
2021,06,27,07,38,26.30
2021,06,27,07,39,26.30
2021,06,27,07,40,26.30
2021,06,27,07,41,26.40
2021,06,27,07,42,26.40
2021,06,27,07,43,26.50
2021,06,27,07,44,26.60
2021,06,27,07,45,26.60
2021,06,27,07,46,26.70
2021,06,27,07,47,26.70
2021,06,27,07,48,26.70
2021,06,27,07,49,26.80
2021,06,27,07,50,26.80
2021,06,27,07,51,26.90
2021,06,27,07,52,26.90
2021,06,27,07,53,27.00
2021,06,27,07,54,27.00
2021,06,27,07,55,27.10
2021,06,27,07,56,27.10
2021,06,27,07,57,27.10
2021,06,27,07,58,27.10
2021,06,27,07,59,27.10
2021,06,27,08,00,27.10
2021,06,27,08,01,27.10
2021,06,27,08,02,27.10
2021,06,27,08,03,27.10
2021,06,27,08,04,27.10
2021,06,27,08,05,27.10
2021,06,27,08,06,27.10
2021,06,27,08,07,27.10
2021,06,27,08,08,27.10
2021,06,27,08,09,27.10
2021,06,27,08,10,27.10
2021,06,27,08,11,27.10
2021,06,27,08,12,27.10
2021,06,27,08,13,27.10
2021,06,27,08,14,27.10
2021,06,27,08,15,27.10
2021,06,27,08,16,27.10
2021,06,27,08,17,27.10
2021,06,27,08,18,27.10
2021,06,27,08,19,27.10
2021,06,27,08,20,27.20
2021,06,27,08,21,27.20
2021,06,27,08,22,27.30
2021,06,27,08,23,27.30
2021,06,27,08,24,27.40
2021,06,27,08,25,27.40
2021,06,27,08,26,27.40
2021,06,27,08,27,27.50
2021,06,27,08,28,27.50
2021,06,27,08,29,27.50
2021,06,27,08,30,27.60
2021,06,27,08,31,27.60
2021,06,27,08,32,27.70
2021,06,27,08,33,27.70
2021,06,27,08,34,27.70
2021,06,27,08,35,27.70
2021,06,27,08,36,27.70
2021,06,27,08,37,27.70
2021,06,27,08,38,27.70
2021,06,27,08,39,27.70
2021,06,27,08,40,27.70
2021,06,27,08,41,27.70
2021,06,27,08,42,27.60
2021,06,27,08,43,27.60
2021,06,27,08,44,27.60
2021,06,27,08,45,27.60
2021,06,27,08,46,27.60
2021,06,27,08,47,27.60
2021,06,27,08,48,27.60
2021,06,27,08,49,27.60
2021,06,27,08,50,27.60
2021,06,27,08,51,27.60
2021,06,27,08,52,27.70
2021,06,27,08,53,27.70
2021,06,27,08,54,27.70
2021,06,27,08,55,27.70
2021,06,27,08,56,27.70
2021,06,27,08,57,27.80
2021,06,27,08,58,27.80
2021,06,27,08,59,27.80
2021,06,27,09,00,27.80
2021,06,27,09,01,27.90
2021,06,27,09,02,27.90
2021,06,27,09,03,27.90
2021,06,27,09,04,27.90
2021,06,27,09,05,28.00
2021,06,27,09,06,28.00
2021,06,27,09,07,28.00
2021,06,27,09,08,28.10
2021,06,27,09,09,28.10
2021,06,27,09,10,28.20
2021,06,27,09,11,28.20
2021,06,27,09,12,28.20
2021,06,27,09,13,28.30
2021,06,27,09,14,28.40
2021,06,27,09,15,28.50
2021,06,27,09,16,28.60
2021,06,27,09,17,28.60
2021,06,27,09,18,28.70
2021,06,27,09,19,28.80
2021,06,27,09,20,28.80
2021,06,27,09,21,28.90
2021,06,27,09,22,28.90
2021,06,27,09,23,29.00
2021,06,27,09,24,29.00
2021,06,27,09,25,29.10
2021,06,27,09,26,29.10
2021,06,27,09,27,29.20
2021,06,27,09,28,29.30
2021,06,27,09,29,29.40
2021,06,27,09,30,29.50
2021,06,27,09,31,29.60
2021,06,27,09,32,29.70
2021,06,27,09,33,29.80
2021,06,27,09,34,29.80
2021,06,27,09,35,29.80
2021,06,27,09,36,29.70
2021,06,27,09,37,29.70
2021,06,27,09,38,29.60
2021,06,27,09,39,29.50
2021,06,27,09,40,29.40
2021,06,27,09,41,29.40
2021,06,27,09,42,29.30
2021,06,27,09,43,29.30
2021,06,27,09,44,29.30
2021,06,27,09,45,29.30
2021,06,27,09,46,29.30
2021,06,27,09,47,29.30
2021,06,27,09,48,29.30
2021,06,27,09,49,29.40
2021,06,27,09,50,29.40
2021,06,27,09,51,29.40
2021,06,27,09,52,29.40
2021,06,27,09,53,29.40
2021,06,27,09,54,29.40
2021,06,27,09,55,29.50
2021,06,27,09,56,29.50
2021,06,27,09,57,29.60
2021,06,27,09,58,29.60
2021,06,27,09,59,29.60
2021,06,27,10,00,29.60
2021,06,27,10,01,29.70
2021,06,27,10,02,29.70
2021,06,27,10,03,29.80
2021,06,27,10,04,29.90
2021,06,27,10,05,29.90
2021,06,27,10,06,29.90
2021,06,27,10,07,30.00
2021,06,27,10,08,30.00
2021,06,27,10,09,30.00
2021,06,27,10,10,30.10
2021,06,27,10,11,30.10
2021,06,27,10,12,30.10
2021,06,27,10,13,30.20
2021,06,27,10,14,30.30
2021,06,27,10,15,30.40
2021,06,27,10,16,30.50
2021,06,27,10,17,30.50
2021,06,27,10,18,30.60
2021,06,27,10,19,30.70
2021,06,27,10,20,30.80
2021,06,27,10,21,30.80
2021,06,27,10,22,30.90
2021,06,27,10,23,30.90
2021,06,27,10,24,30.90
2021,06,27,10,25,31.00
2021,06,27,10,26,31.00
2021,06,27,10,27,31.10
2021,06,27,10,28,31.20
2021,06,27,10,29,31.20
2021,06,27,10,30,31.30
2021,06,27,10,31,31.40
2021,06,27,10,32,31.40
2021,06,27,10,33,31.40
2021,06,27,10,34,31.40
2021,06,27,10,35,31.40
2021,06,27,10,36,31.40
2021,06,27,10,37,31.40
2021,06,27,10,38,31.40
2021,06,27,10,39,31.40
2021,06,27,10,40,31.50
2021,06,27,10,41,31.50
2021,06,27,10,42,31.60
2021,06,27,10,43,31.50
2021,06,27,10,44,31.50
2021,06,27,10,45,31.50
2021,06,27,10,46,31.60
2021,06,27,10,47,31.60
2021,06,27,10,48,31.60
2021,06,27,10,49,31.50
2021,06,27,10,50,31.50
2021,06,27,10,51,31.50
2021,06,27,10,52,31.40
2021,06,27,10,53,31.40
2021,06,27,10,54,31.30
2021,06,27,10,55,31.30
2021,06,27,10,56,31.30
2021,06,27,10,57,31.30
2021,06,27,10,58,31.30
2021,06,27,10,59,31.30
2021,06,27,11,00,31.30
2021,06,27,11,01,31.30
2021,06,27,11,02,31.30
2021,06,27,11,03,31.30
2021,06,27,11,04,31.30
2021,06,27,11,05,31.30
2021,06,27,11,06,31.30
2021,06,27,11,07,31.30
2021,06,27,11,08,31.30
2021,06,27,11,09,31.30
2021,06,27,11,10,31.30
2021,06,27,11,11,31.30
2021,06,27,11,12,31.40
2021,06,27,11,13,31.40
2021,06,27,11,14,31.40
2021,06,27,11,15,31.40
2021,06,27,11,16,31.50
2021,06,27,11,17,31.50
2021,06,27,11,18,31.50
2021,06,27,11,19,31.50
2021,06,27,11,20,31.60
2021,06,27,11,21,31.60
2021,06,27,11,22,31.70
2021,06,27,11,23,31.70
2021,06,27,11,24,31.80
2021,06,27,11,25,31.90
2021,06,27,11,26,31.90
2021,06,27,11,27,31.90
2021,06,27,11,28,31.90
2021,06,27,11,29,31.90
2021,06,27,11,30,31.90
2021,06,27,11,31,31.90
2021,06,27,11,32,31.90
2021,06,27,11,33,31.90
2021,06,27,11,34,31.90
2021,06,27,11,35,31.90
2021,06,27,11,36,31.90
2021,06,27,11,37,31.90
2021,06,27,11,38,31.90
2021,06,27,11,39,31.80
2021,06,27,11,40,31.80
2021,06,27,11,41,31.80
2021,06,27,11,42,31.80
2021,06,27,11,43,31.80
2021,06,27,11,44,31.90
2021,06,27,11,45,31.90
2021,06,27,11,46,32.00
2021,06,27,11,47,32.00
2021,06,27,11,48,32.00
2021,06,27,11,49,32.00
2021,06,27,11,50,32.10
2021,06,27,11,51,32.10
2021,06,27,11,52,32.10
2021,06,27,11,53,32.10
2021,06,27,11,54,32.00
2021,06,27,11,55,32.00
2021,06,27,11,56,32.00
2021,06,27,11,57,32.10
2021,06,27,11,58,32.10
2021,06,27,11,59,32.20
2021,06,27,12,00,32.20
2021,06,27,12,01,32.20
2021,06,27,12,02,32.20
2021,06,27,12,03,32.20
2021,06,27,12,04,32.10
2021,06,27,12,05,32.10
2021,06,27,12,06,32.00
2021,06,27,12,07,32.00
2021,06,27,12,08,32.00
2021,06,27,12,09,32.10
2021,06,27,12,10,32.10
2021,06,27,12,11,32.10
2021,06,27,12,12,32.10
2021,06,27,12,13,32.10
2021,06,27,12,14,32.20
2021,06,27,12,15,32.20
2021,06,27,12,16,32.20
2021,06,27,12,17,32.20
2021,06,27,12,18,32.30
2021,06,27,12,19,32.30
2021,06,27,12,20,32.30
2021,06,27,12,21,32.30
2021,06,27,12,22,32.30
2021,06,27,12,23,32.30
2021,06,27,12,24,32.30
2021,06,27,12,25,32.40
2021,06,27,12,26,32.40
2021,06,27,12,27,32.50
2021,06,27,12,28,32.60
2021,06,27,12,29,32.60
2021,06,27,12,30,32.70
2021,06,27,12,31,32.70
2021,06,27,12,32,32.70
2021,06,27,12,33,32.70
2021,06,27,12,34,32.70
2021,06,27,12,35,32.70
2021,06,27,12,36,32.80
2021,06,27,12,37,32.80
2021,06,27,12,38,32.80
2021,06,27,12,39,32.80
2021,06,27,12,40,32.80
2021,06,27,12,41,32.80
2021,06,27,12,42,32.80
2021,06,27,12,43,32.80
2021,06,27,12,44,32.80
2021,06,27,12,45,32.90
2021,06,27,12,46,32.90
2021,06,27,12,47,32.90
2021,06,27,12,48,32.90
2021,06,27,12,49,32.90
2021,06,27,12,50,32.90
2021,06,27,12,51,33.00
2021,06,27,12,52,33.00
2021,06,27,12,53,33.10
2021,06,27,12,54,33.10
2021,06,27,12,55,33.10
2021,06,27,12,56,33.10
2021,06,27,12,57,33.10
2021,06,27,12,58,33.10
2021,06,27,12,59,33.10
2021,06,27,13,00,33.10
2021,06,27,13,01,33.10
2021,06,27,13,02,33.10
2021,06,27,13,03,33.10
2021,06,27,13,04,33.10
2021,06,27,13,05,33.20
2021,06,27,13,06,33.20
2021,06,27,13,07,33.20
2021,06,27,13,08,33.20
2021,06,27,13,09,33.20
2021,06,27,13,10,33.20
2021,06,27,13,11,33.20
2021,06,27,13,12,33.20
2021,06,27,13,13,33.20
2021,06,27,13,14,33.10
2021,06,27,13,15,33.10
2021,06,27,13,16,33.10
2021,06,27,13,17,33.10
2021,06,27,13,18,33.10
2021,06,27,13,19,33.20
2021,06,27,13,20,33.20
2021,06,27,13,21,33.20
2021,06,27,13,22,33.30
2021,06,27,13,23,33.30
2021,06,27,13,24,33.30
2021,06,27,13,25,33.30
2021,06,27,13,26,33.30
2021,06,27,13,27,33.30
2021,06,27,13,28,33.30
2021,06,27,13,29,33.40
2021,06,27,13,30,33.40
2021,06,27,13,31,33.40
2021,06,27,13,32,33.40
2021,06,27,13,33,33.50
2021,06,27,13,34,33.60
2021,06,27,13,35,33.60
2021,06,27,13,36,33.70
2021,06,27,13,37,33.80
2021,06,27,13,38,33.80
2021,06,27,13,39,33.80
2021,06,27,13,40,33.80
2021,06,27,13,41,33.80
2021,06,27,13,42,33.80
2021,06,27,13,43,33.80
2021,06,27,13,44,33.80
2021,06,27,13,45,33.80
2021,06,27,13,46,33.80
2021,06,27,13,47,33.90
2021,06,27,13,48,33.90
2021,06,27,13,49,33.90
2021,06,27,13,50,33.90
2021,06,27,13,51,33.90
2021,06,27,13,52,33.90
2021,06,27,13,53,33.90
2021,06,27,13,54,33.90
2021,06,27,13,55,33.80
2021,06,27,13,56,33.80
2021,06,27,13,57,33.80
2021,06,27,13,58,33.80
2021,06,27,13,59,33.90
2021,06,27,14,00,34.00
2021,06,27,14,01,34.10
2021,06,27,14,02,34.10
2021,06,27,14,03,34.10
2021,06,27,14,04,34.10
2021,06,27,14,05,34.10
2021,06,27,14,06,34.10
2021,06,27,14,07,34.10
2021,06,27,14,08,34.00
2021,06,27,14,09,34.00
2021,06,27,14,10,34.00
2021,06,27,14,11,34.10
2021,06,27,14,12,34.20
2021,06,27,14,13,34.20
2021,06,27,14,14,34.30
2021,06,27,14,15,34.30
2021,06,27,14,16,34.30
2021,06,27,14,17,34.30
2021,06,27,14,18,34.40
2021,06,27,14,19,34.40
2021,06,27,14,20,34.50
2021,06,27,14,21,34.50
2021,06,27,14,22,34.60
2021,06,27,14,23,34.60
2021,06,27,14,24,34.60
2021,06,27,14,25,34.60
2021,06,27,14,26,34.60
2021,06,27,14,27,34.60
2021,06,27,14,28,34.60
2021,06,27,14,29,34.70
2021,06,27,14,30,34.80
2021,06,27,14,31,34.80
2021,06,27,14,32,34.80
2021,06,27,14,33,34.90
2021,06,27,14,34,34.90
2021,06,27,14,35,34.90
2021,06,27,14,36,35.00
2021,06,27,14,37,35.00
2021,06,27,14,38,35.00
2021,06,27,14,39,35.10
2021,06,27,14,40,35.20
2021,06,27,14,41,35.20
2021,06,27,14,42,35.20
2021,06,27,14,43,35.20
2021,06,27,14,44,35.30
2021,06,27,14,45,35.30
2021,06,27,14,46,35.40
2021,06,27,14,47,35.40
2021,06,27,14,48,35.40
2021,06,27,14,49,35.40
2021,06,27,14,50,35.40
2021,06,27,14,51,35.40
2021,06,27,14,52,35.40
2021,06,27,14,53,35.40
2021,06,27,14,54,35.30
2021,06,27,14,55,35.30
2021,06,27,14,56,35.30
2021,06,27,14,57,35.40
2021,06,27,14,58,35.40
2021,06,27,14,59,35.40
2021,06,27,15,00,35.40
2021,06,27,15,01,35.40
2021,06,27,15,02,35.40
2021,06,27,15,03,35.40
2021,06,27,15,04,35.40
2021,06,27,15,05,35.40
2021,06,27,15,06,35.40
2021,06,27,15,07,35.40
2021,06,27,15,08,35.50
2021,06,27,15,09,35.50
2021,06,27,15,10,35.40
2021,06,27,15,11,35.40
2021,06,27,15,12,35.40
2021,06,27,15,13,35.40
2021,06,27,15,14,35.30
2021,06,27,15,15,35.30
2021,06,27,15,16,35.30
2021,06,27,15,17,35.20
2021,06,27,15,18,35.20
2021,06,27,15,19,35.20
2021,06,27,15,20,35.20
2021,06,27,15,21,35.30
2021,06,27,15,22,35.30
2021,06,27,15,23,35.30
2021,06,27,15,24,35.30
2021,06,27,15,25,35.30
2021,06,27,15,26,35.40
2021,06,27,15,27,35.40
2021,06,27,15,28,35.40
2021,06,27,15,29,35.50
2021,06,27,15,30,35.60
2021,06,27,15,31,35.70
2021,06,27,15,32,35.70
2021,06,27,15,33,35.70
2021,06,27,15,34,35.60
2021,06,27,15,35,35.60
2021,06,27,15,36,35.60
2021,06,27,15,37,35.60
2021,06,27,15,38,35.60
2021,06,27,15,39,35.60
2021,06,27,15,40,35.60
2021,06,27,15,41,35.60
2021,06,27,15,42,35.60
2021,06,27,15,43,35.50
2021,06,27,15,44,35.50
2021,06,27,15,45,35.50
2021,06,27,15,46,35.50
2021,06,27,15,47,35.50
2021,06,27,15,48,35.50
2021,06,27,15,49,35.50
2021,06,27,15,50,35.40
2021,06,27,15,51,35.40
2021,06,27,15,52,35.40
2021,06,27,15,53,35.30
2021,06,27,15,54,35.40
2021,06,27,15,55,35.40
2021,06,27,15,56,35.50
2021,06,27,15,57,35.50
2021,06,27,15,58,35.60
2021,06,27,15,59,35.70
2021,06,27,16,00,35.80
2021,06,27,16,01,35.80
2021,06,27,16,02,35.90
2021,06,27,16,03,36.00
2021,06,27,16,04,36.10
2021,06,27,16,05,36.20
2021,06,27,16,06,36.30
2021,06,27,16,07,36.40
2021,06,27,16,08,36.50
2021,06,27,16,09,36.50
2021,06,27,16,10,36.40
2021,06,27,16,11,36.50
2021,06,27,16,12,36.50
2021,06,27,16,13,36.60
2021,06,27,16,14,36.70
2021,06,27,16,15,36.70
2021,06,27,16,16,36.70
2021,06,27,16,17,36.60
2021,06,27,16,18,36.50
2021,06,27,16,19,36.40
2021,06,27,16,20,36.40
2021,06,27,16,21,36.40
2021,06,27,16,22,36.40
2021,06,27,16,23,36.40
2021,06,27,16,24,36.40
2021,06,27,16,25,36.40
2021,06,27,16,26,36.40
2021,06,27,16,27,36.30
2021,06,27,16,28,36.30
2021,06,27,16,29,36.40
2021,06,27,16,30,36.40
2021,06,27,16,31,36.40
2021,06,27,16,32,36.40
2021,06,27,16,33,36.40
2021,06,27,16,34,36.30
2021,06,27,16,35,36.30
2021,06,27,16,36,36.30
2021,06,27,16,37,36.30
2021,06,27,16,38,36.20
2021,06,27,16,39,36.20
2021,06,27,16,40,36.20
2021,06,27,16,41,36.10
2021,06,27,16,42,36.10
2021,06,27,16,43,36.00
2021,06,27,16,44,36.00
2021,06,27,16,45,35.90
2021,06,27,16,46,35.80
2021,06,27,16,47,35.80
2021,06,27,16,48,35.90
2021,06,27,16,49,36.00
2021,06,27,16,50,36.00
2021,06,27,16,51,36.10
2021,06,27,16,52,36.20
2021,06,27,16,53,36.20
2021,06,27,16,54,36.20
2021,06,27,16,55,36.20
2021,06,27,16,56,36.20
2021,06,27,16,57,36.20
2021,06,27,16,58,36.20
2021,06,27,16,59,36.20
2021,06,27,17,00,36.20
2021,06,27,17,01,36.10
2021,06,27,17,02,36.10
2021,06,27,17,03,36.10
2021,06,27,17,04,36.20
2021,06,27,17,05,36.10
2021,06,27,17,06,36.10
2021,06,27,17,07,36.10
2021,06,27,17,08,36.10
2021,06,27,17,09,36.00
2021,06,27,17,10,35.90
2021,06,27,17,11,35.90
2021,06,27,17,12,35.80
2021,06,27,17,13,35.80
2021,06,27,17,14,35.80
2021,06,27,17,15,35.80
2021,06,27,17,16,35.90
2021,06,27,17,17,35.90
2021,06,27,17,18,35.90
2021,06,27,17,19,35.80